FW6638 Weather Reports


Display with metric or nautical units.
time (UTC)temp
F
wind
direction
speed
MPH
gust
MPH
rain 1hr
in
rain 24hr
in
rain mn
in
humidity
%
barometer
mb
20200601063005 52 78 0.0 1.0 0.00 0.13 0.12 97 1005.0
20200601062505 52 78 0.0 1.0 0.01 0.13 0.12 97 1004.8
20200601062005 52 78 0.0 2.0 0.01 0.13 0.12 97 1004.6
20200601061506 52 78 0.0 2.0 0.01 0.13 0.12 97 1004.6
20200601061005 52 0 0.0 0.0 0.01 0.13 0.12 97 1004.6
20200601060505 52 78 0.0 1.0 0.01 0.13 0.12 96 1004.6
20200601060004 52 78 0.0 2.0 0.01 0.13 0.12 96 1004.5
20200601055506 52 78 0.0 2.0 0.01 0.13 0.12 97 1004.5
20200601055004 52 70 0.0 3.0 0.01 0.13 0.12 97 1004.4
20200601054505 52 293 1.0 3.0 0.01 0.13 0.12 96 1004.5
20200601054004 52 300 1.0 3.0 0.01 0.13 0.12 96 1004.5
20200601053505 52 315 1.0 7.0 0.01 0.13 0.12 96 1004.6
20200601053006 52 325 1.0 7.0 0.01 0.13 0.12 96 1004.7
20200601052504 52 310 2.0 6.0 0.00 0.12 0.11 96 1004.7
20200601052004 52 314 2.0 6.0 0.00 0.12 0.11 96 1004.6
20200601051506 52 339 1.0 4.0 0.00 0.12 0.11 96 1004.6
20200601051006 53 302 1.0 3.0 0.00 0.12 0.11 96 1004.5
20200601050505 53 266 0.0 3.0 0.00 0.12 0.11 96 1004.4
20200601050006 53 240 1.0 4.0 0.00 0.12 0.11 95 1004.3
20200601045504 53 253 1.0 4.0 0.00 0.12 0.11 95 1004.2
20200601045009 53 274 2.0 4.0 0.00 0.12 0.11 95 1004.0
20200601044504 53 285 1.0 4.0 0.00 0.12 0.11 95 1004.0
20200601044005 53 313 1.0 4.0 0.00 0.12 0.11 95 1003.9
20200601043505 53 310 1.0 6.0 0.00 0.12 0.11 95 1003.7
20200601043006 54 317 1.0 6.0 0.00 0.12 0.11 95 1003.6
20200601042505 54 308 1.0 6.0 0.00 0.12 0.11 95 1003.5
20200601042004 54 300 1.0 6.0 0.00 0.12 0.11 95 1003.6
20200601041505 54 345 1.0 4.0 0.01 0.12 0.11 96 1003.5
20200601041005 54 45 1.0 3.0 0.01 0.12 0.11 96 1003.4
20200601040508 54 19 1.0 3.0 0.02 0.12 0.11 97 1003.4
20200601040005 54 21 1.0 3.0 0.02 0.12 0.11 97 1003.4
20200601035504 54 21 1.0 2.0 0.02 0.12 0.11 98 1003.3
20200601035005 53 19 1.0 4.0 0.02 0.12 0.11 97 1003.3
20200601034506 53 352 1.0 4.0 0.02 0.12 0.11 97 1003.3
20200601034005 53 294 1.0 2.0 0.02 0.12 0.11 97 1003.3
20200601033504 53 281 1.0 3.0 0.02 0.12 0.11 96 1003.3
20200601033004 53 314 1.0 4.0 0.02 0.12 0.11 96 1003.2
20200601032505 53 342 1.0 5.0 0.02 0.12 0.11 96 1003.2
20200601032006 53 344 1.0 5.0 0.02 0.12 0.11 95 1003.2
20200601031504 53 332 1.0 6.0 0.01 0.11 0.10 94 1003.1
20200601031005 54 334 1.0 6.0 0.00 0.10 0.09 94 1003.1
20200601030505 54 319 1.0 6.0 0.00 0.10 0.09 94 1003.1
20200601030006 54 334 2.0 6.0 0.00 0.10 0.09 95 1003.0
20200601025504 54 2 2.0 6.0 0.00 0.10 0.09 94 1002.9
20200601025005 54 10 2.0 6.0 0.00 0.10 0.09 93 1002.9
20200601024505 54 2 2.0 5.0 0.02 0.10 0.09 94 1002.8
20200601024005 54 1 2.0 5.0 0.02 0.10 0.09 95 1002.9
20200601023504 54 360 2.0 6.0 0.02 0.10 0.09 96 1002.9
20200601023006 54 357 2.0 8.0 0.02 0.10 0.09 96 1002.9
20200601022505 54 360 2.0 8.0 0.02 0.10 0.09 97 1002.8
20200601022006 54 9 1.0 7.0 0.02 0.10 0.09 96 1002.9
20200601021505 54 348 2.0 8.0 0.02 0.10 0.09 96 1003.0
20200601021005 54 2 2.0 8.0 0.02 0.10 0.09 96 1002.9
20200601020505 54 28 1.0 4.0 0.02 0.10 0.09 97 1002.9
20200601020005 54 321 0.0 4.0 0.02 0.10 0.09 97 1002.8
20200601015505 54 327 1.0 5.0 0.02 0.18 0.09 95 1002.9
20200601015005 54 339 1.0 5.0 0.02 0.23 0.09 95 1002.9
20200601014506 54 335 1.0 3.0 0.00 0.24 0.08 94 1002.9
20200601014004 54 337 1.0 3.0 0.00 0.24 0.08 94 1002.8
20200601013505 54 5 2.0 4.0 0.00 0.24 0.08 94 1002.9
20200601013005 54 17 2.0 4.0 0.00 0.24 0.08 95 1002.9
20200601012505 54 9 2.0 4.0 0.00 0.24 0.08 96 1003.0
20200601012005 54 12 2.0 5.0 0.00 0.24 0.08 96 1003.0
20200601011505 54 12 2.0 5.0 0.00 0.24 0.08 96 1003.0
20200601011005 54 14 2.0 5.0 0.00 0.24 0.08 96 1003.0
20200601010507 54 16 2.0 5.0 0.00 0.24 0.08 97 1003.1
20200601010006 53 8 2.0 4.0 0.00 0.24 0.08 97 1003.2
20200601005507 53 6 2.0 4.0 0.00 0.24 0.08 97 1003.3
20200601005005 53 15 2.0 4.0 0.00 0.24 0.08 98 1003.3
20200601004505 53 21 2.0 4.0 0.00 0.24 0.08 99 1003.3
20200601004004 53 24 2.0 4.0 0.00 0.24 0.08 99 1003.3
20200601003504 53 29 3.0 5.0 0.00 0.24 0.08 100 1003.2
20200601003006 53 26 3.0 5.0 0.00 0.24 0.08 100 1003.3
20200601002506 53 13 2.0 5.0 0.00 0.24 0.08 100 1003.2
20200601002005 53 359 1.0 3.0 0.00 0.24 0.08 100 1003.2
20200601001505 52 353 1.0 3.0 0.00 0.24 0.08 100 1003.1
20200601001004 52 353 1.0 3.0 0.00 0.24 0.08 100 1003.1
20200601000507 51 353 0.0 3.0 0.00 0.24 0.08 100 1003.1
20200601000007 51 353 0.0 2.0 0.00 0.24 0.08 100 1003.2
20200531235506 50 353 0.0 2.0 0.00 0.24 0.08 100 1003.2
20200531235004 50 0 0.0 0.0 0.00 0.24 0.08 100 1003.2
20200531234504 50 0 0.0 0.0 0.00 0.24 0.08 100 1003.1
20200531234005 50 353 0.0 1.0 0.00 0.24 0.08 100 1003.0
20200531233506 50 353 0.0 1.0 0.00 0.24 0.08 100 1003.0
20200531233005 50 353 1.0 2.0 0.00 0.24 0.08 100 1003.1
20200531232504 49 353 1.0 2.0 0.00 0.24 0.08 100 1003.1
20200531232010 49 353 0.0 1.0 0.00 0.24 0.08 100 1003.0
20200531231505 48 0 0.0 0.0 0.00 0.24 0.08 100 1002.9
20200531231005 47 0 0.0 0.0 0.01 0.24 0.08 100 1003.0
20200531230505 47 0 0.0 0.0 0.01 0.24 0.08 100 1003.0
20200531230004 47 0 0.0 0.0 0.01 0.24 0.08 100 1003.0
20200531225505 47 0 0.0 0.0 0.01 0.24 0.08 100 1003.0
20200531225005 47 0 0.0 0.0 0.01 0.24 0.08 100 1003.0
20200531224505 46 353 0.0 2.0 0.01 0.24 0.08 100 1003.0
20200531224004 46 353 0.0 2.0 0.01 0.24 0.08 100 1003.0
20200531223507 46 353 0.0 1.0 0.01 0.24 0.08 100 1002.9
20200531223005 45 353 0.0 2.0 0.01 0.24 0.08 100 1003.0
20200531222504 45 353 0.0 2.0 0.01 0.24 0.08 100 1003.0
20200531222005 45 353 0.0 3.0 0.01 0.24 0.08 100 1002.9
20200531221505 45 353 0.0 3.0 0.01 0.24 0.08 100 1002.8
20200531221005 45 353 0.0 3.0 0.00 0.24 0.07 100 1002.7
20200531220505 45 0 0.0 0.0 0.00 0.24 0.07 100 1002.7
20200531220005 45 353 0.0 1.0 0.00 0.24 0.07 100 1002.6
20200531215506 45 353 0.0 1.0 0.00 0.24 0.07 100 1002.7
20200531215004 45 353 0.0 1.0 0.00 0.24 0.07 100 1002.6
20200531214504 45 351 0.0 3.0 0.00 0.24 0.07 100 1002.5
20200531214004 45 351 0.0 3.0 0.00 0.24 0.07 100 1002.5
20200531213505 44 0 0.0 0.0 0.00 0.24 0.07 100 1002.4
20200531213009 44 0 0.0 0.0 0.00 0.24 0.07 100 1002.5
20200531212504 44 0 0.0 0.0 0.00 0.24 0.07 100 1002.4
20200531212004 44 0 0.0 0.0 0.00 0.24 0.07 100 1002.3
20200531211507 44 0 0.0 0.0 0.00 0.24 0.07 100 1002.3
20200531211004 44 344 0.0 1.0 0.00 0.24 0.07 100 1002.3
20200531210505 44 344 0.0 1.0 0.00 0.24 0.07 99 1002.3
20200531210004 44 344 0.0 1.0 0.01 0.24 0.07 99 1002.3
20200531205505 44 344 0.0 2.0 0.01 0.24 0.07 99 1002.2
20200531205004 44 345 1.0 3.0 0.01 0.24 0.07 99 1002.3
20200531204505 44 345 1.0 3.0 0.01 0.24 0.07 99 1002.3
20200531204004 44 0 0.0 0.0 0.01 0.24 0.07 99 1002.2
20200531203505 44 0 0.0 0.0 0.01 0.24 0.07 99 1002.1
20200531203004 44 0 0.0 0.0 0.01 0.24 0.07 99 1002.1
20200531202504 44 0 0.0 0.0 0.01 0.24 0.07 99 1002.2
20200531202007 44 0 0.0 0.0 0.01 0.24 0.07 99 1002.2
20200531201504 44 0 0.0 0.0 0.01 0.24 0.07 99 1002.3
20200531201005 44 0 0.0 0.0 0.01 0.24 0.07 99 1002.2
20200531200504 44 0 0.0 0.0 0.01 0.24 0.07 99 1002.2
20200531200007 44 0 0.0 0.0 0.00 0.23 0.06 99 1002.2
20200531195504 44 0 0.0 0.0 0.00 0.23 0.06 99 1002.2
20200531195005 44 0 0.0 0.0 0.00 0.23 0.06 99 1002.1
20200531194506 44 0 0.0 0.0 0.00 0.23 0.06 99 1002.1
20200531194008 44 0 0.0 0.0 0.00 0.23 0.06 99 1002.1
20200531193504 44 0 0.0 0.0 0.00 0.23 0.06 99 1002.1
20200531193004 44 0 0.0 0.0 0.00 0.23 0.06 99 1002.1
20200531192504 45 0 0.0 0.0 0.00 0.23 0.06 99 1002.1
20200531192004 45 0 0.0 0.0 0.00 0.23 0.06 99 1002.1
20200531191509 45 0 0.0 0.0 0.00 0.24 0.06 99 1002.1
20200531191004 45 0 0.0 0.0 0.00 0.24 0.06 100 1002.1
20200531190504 45 0 0.0 0.0 0.00 0.24 0.06 100 1002.2
20200531190009 45 0 0.0 0.0 0.00 0.25 0.06 100 1002.2
20200531185504 45 0 0.0 0.0 0.01 0.25 0.06 99 1002.1
20200531185004 45 0 0.0 0.0 0.02 0.25 0.06 99 1002.1
20200531184505 45 0 0.0 0.0 0.02 0.25 0.06 99 1002.1
20200531184005 45 0 0.0 0.0 0.02 0.25 0.06 99 1002.1
20200531183504 45 0 0.0 0.0 0.02 0.25 0.06 99 1002.2
20200531183005 45 0 0.0 0.0 0.02 0.26 0.06 99 1002.2
20200531182505 45 0 0.0 0.0 0.02 0.27 0.06 99 1002.2
20200531182005 45 0 0.0 0.0 0.02 0.28 0.06 99 1002.2
20200531181507 45 0 0.0 0.0 0.02 0.28 0.06 99 1002.1
20200531181004 45 0 0.0 0.0 0.04 0.28 0.06 100 1002.3
20200531180505 45 0 0.0 0.0 0.05 0.29 0.06 100 1002.4
20200531180005 45 0 0.0 0.0 0.05 0.29 0.06 100 1002.3
20200531175505 45 0 0.0 0.0 0.04 0.31 0.06 100 1002.2
20200531175006 45 0 0.0 0.0 0.03 0.31 0.05 99 1002.4
20200531174506 45 0 0.0 0.0 0.02 0.31 0.04 99 1002.4
20200531174005 45 0 0.0 0.0 0.02 0.31 0.04 99 1002.4
20200531173504 44 0 0.0 0.0 0.02 0.31 0.04 99 1002.4
20200531173006 44 0 0.0 0.0 0.02 0.31 0.04 99 1002.5
20200531172504 44 0 0.0 0.0 0.02 0.32 0.04 99 1002.5
20200531172004 44 0 0.0 0.0 0.02 0.32 0.04 99 1002.5
20200531171509 44 0 0.0 0.0 0.02 0.32 0.04 99 1002.5
20200531171006 44 0 0.0 0.0 0.01 0.31 0.02 99 1002.9
20200531170504 44 0 0.0 0.0 0.00 0.30 0.02 99 1002.7
20200531170007 44 0 0.0 0.0 0.00 0.30 0.02 99 1002.7
20200531165504 45 0 0.0 0.0 0.00 0.30 0.02 99 1002.8
20200531165005 45 0 0.0 0.0 0.00 0.31 0.02 99 1002.9
20200531164505 45 0 0.0 0.0 0.00 0.31 0.02 99 1003.0
20200531164004 45 0 0.0 0.0 0.00 0.31 0.02 99 1003.0
20200531163504 45 0 0.0 0.0 0.00 0.32 0.02 99 1003.1
20200531163004 45 261 0.0 2.0 0.00 0.32 0.02 99 1003.0
20200531162505 45 254 1.0 3.0 0.00 0.33 0.02 99 1003.2
20200531162007 45 247 0.0 3.0 0.01 0.33 0.02 99 1003.2
20200531161504 45 0 0.0 0.0 0.02 0.33 0.02 99 1003.2
20200531161004 45 0 0.0 0.0 0.02 0.33 0.02 99 1003.1
20200531160504 45 0 0.0 0.0 0.02 0.33 0.02 99 1003.1
20200531160004 45 0 0.0 0.0 0.02 0.33 0.02 99 1003.1
20200531155505 45 0 0.0 0.0 0.02 0.33 0.02 99 1003.2
20200531155005 44 0 0.0 0.0 0.02 0.33 0.02 99 1003.3
20200531154505 44 0 0.0 0.0 0.02 0.33 0.02 99 1003.3
20200531154004 44 0 0.0 0.0 0.02 0.33 0.02 99 1003.4
20200531153507 44 0 0.0 0.0 0.02 0.33 0.02 99 1003.4
20200531153005 44 247 0.0 1.0 0.02 0.33 0.02 99 1003.4
20200531152507 44 247 0.0 2.0 0.02 0.33 0.02 98 1003.6
20200531152004 44 247 0.0 3.0 0.01 0.32 0.01 98 1003.6
20200531151504 44 247 1.0 5.0 0.00 0.31 0.00 98 1003.5
20200531151004 44 247 1.0 5.0 0.00 0.31 0.00 98 1003.6
20200531150505 44 247 0.0 2.0 0.00 0.31 0.00 98 1003.6
20200531150007 44 247 0.0 2.0 0.00 0.31 0.00 98 1003.7
20200531145507 44 247 0.0 3.0 0.00 0.31 0.00 98 1003.7
20200531145007 45 247 2.0 4.0 0.00 0.31 0.00 98 1003.8
20200531144511 45 250 3.0 6.0 0.00 0.31 0.00 98 1003.8
20200531144011 45 256 4.0 6.0 0.00 0.31 0.00 98 1004.0
20200531143545 45 262 3.0 4.0 0.00 0.31 0.00 98 1004.1
20200531143011 45 266 3.0 4.0 0.00 0.31 0.00 98 1004.2
20200531142508 45 269 3.0 4.0 0.00 0.31 0.00 97 1004.2
20200531142007 45 272 2.0 4.0 0.00 0.31 0.00 97 1004.3
20200531141507 45 273 2.0 3.0 0.00 0.31 0.00 98 1004.4
20200531141009 46 273 2.0 3.0 0.00 0.31 0.00 98 1004.4
20200531140510 46 273 2.0 3.0 0.01 0.31 0.00 98 1004.5
20200531140007 46 273 2.0 3.0 0.01 0.31 0.00 98 1004.6
20200531135507 46 273 2.0 3.0 0.01 0.31 0.31 98 1004.6
20200531135009 46 273 2.0 3.0 0.01 0.31 0.31 97 1004.7
20200531134508 46 273 1.0 3.0 0.01 0.31 0.31 98 1004.8
20200531134008 46 273 0.0 2.0 0.01 0.31 0.31 97 1004.8
20200531133507 46 273 0.0 2.0 0.01 0.31 0.31 98 1004.8
20200531133007 46 273 1.0 3.0 0.01 0.31 0.31 98 1004.8
20200531132511 46 273 1.0 3.0 0.01 0.31 0.31 98 1004.9
20200531132008 46 273 1.0 3.0 0.01 0.31 0.31 98 1005.0
20200531131508 46 273 2.0 4.0 0.01 0.31 0.31 98 1005.0
20200531131008 46 279 2.0 4.0 0.01 0.31 0.31 98 1005.1
20200531130507 46 288 3.0 4.0 0.00 0.31 0.31 98 1005.2
20200531130007 46 293 2.0 3.0 0.00 0.31 0.31 97 1005.3
20200531125509 46 293 2.0 3.0 0.00 0.31 0.31 98 1005.3
20200531125009 46 293 2.0 4.0 0.00 0.31 0.31 98 1005.4
20200531124510 46 293 2.0 4.0 0.00 0.31 0.31 98 1005.5
20200531124007 46 293 2.0 3.0 0.00 0.31 0.31 98 1005.6
20200531123507 46 293 2.0 4.0 0.00 0.31 0.31 97 1005.7
20200531123007 46 293 3.0 4.0 0.00 0.31 0.31 97 1005.7
20200531122508 46 293 3.0 4.0 0.00 0.31 0.31 97 1005.7
20200531122007 46 293 3.0 4.0 0.00 0.31 0.31 97 1005.8
20200531121509 46 293 1.0 4.0 0.00 0.31 0.31 97 1005.9
20200531121007 46 293 0.0 2.0 0.00 0.31 0.31 97 1005.9
20200531120507 46 0 0.0 0.0 0.00 0.31 0.31 97 1006.1
20200531120008 46 0 0.0 0.0 0.00 0.31 0.31 97 1006.1
20200531115511 46 0 0.0 0.0 0.00 0.31 0.31 97 1006.2
20200531115007 46 0 0.0 0.0 0.00 0.31 0.31 96 1006.2
20200531114507 46 0 0.0 0.0 0.00 0.31 0.31 97 1006.2
20200531114007 46 0 0.0 0.0 0.00 0.31 0.31 96 1006.2
20200531113507 46 0 0.0 0.0 0.00 0.31 0.31 96 1006.3
20200531113008 46 0 0.0 0.0 0.00 0.31 0.31 96 1006.4
20200531112508 46 0 0.0 0.0 0.00 0.31 0.31 96 1006.3
20200531112007 46 0 0.0 0.0 0.00 0.31 0.31 96 1006.4
20200531111507 47 0 0.0 0.0 0.00 0.31 0.31 96 1006.4
20200531111009 47 0 0.0 0.0 0.00 0.31 0.31 96 1006.5
20200531110507 47 0 0.0 0.0 0.00 0.31 0.31 96 1006.5
20200531110007 47 0 0.0 0.0 0.00 0.31 0.31 96 1006.5
20200531105510 47 0 0.0 0.0 0.00 0.31 0.31 96 1006.7
20200531105007 47 0 0.0 0.0 0.00 0.31 0.31 96 1006.8
20200531104508 47 0 0.0 0.0 0.00 0.31 0.31 96 1006.7
20200531104010 47 0 0.0 0.0 0.00 0.31 0.31 96 1006.7
20200531103507 47 0 0.0 0.0 0.00 0.31 0.31 96 1006.7
20200531103007 47 0 0.0 0.0 0.00 0.31 0.31 96 1006.7
20200531102509 47 293 0.0 1.0 0.00 0.31 0.31 96 1006.8
20200531102008 47 293 1.0 3.0 0.00 0.31 0.31 96 1006.8
20200531101507 47 293 1.0 3.0 0.00 0.31 0.31 96 1006.8
20200531101007 47 293 0.0 3.0 0.00 0.31 0.31 97 1006.9
20200531100507 47 0 0.0 0.0 0.00 0.31 0.31 97 1006.9
20200531100008 47 0 0.0 0.0 0.00 0.31 0.31 97 1006.9
20200531095507 47 0 0.0 0.0 0.00 0.31 0.31 97 1007.0
20200531095007 47 0 0.0 0.0 0.00 0.31 0.31 97 1007.0
20200531094507 47 0 0.0 0.0 0.00 0.31 0.31 97 1007.0
20200531094010 47 0 0.0 1.0 0.00 0.31 0.31 96 1007.0
20200531093507 47 0 0.0 1.0 0.00 0.31 0.31 96 1006.9
20200531093007 47 293 0.0 2.0 0.00 0.31 0.31 96 1007.0
20200531092507 47 293 1.0 3.0 0.00 0.31 0.31 96 1007.0
20200531092008 48 293 0.0 3.0 0.00 0.31 0.31 96 1007.0
20200531091507 48 0 0.0 0.0 0.00 0.31 0.31 96 1007.0
20200531091007 48 0 0.0 0.0 0.00 0.31 0.31 96 1007.1
20200531090508 48 0 0.0 0.0 0.00 0.31 0.31 96 1007.1
20200531090007 48 0 0.0 0.0 0.00 0.31 0.31 96 1007.1
20200531085507 48 0 0.0 0.0 0.00 0.31 0.31 96 1007.0
20200531085007 48 0 0.0 0.0 0.00 0.31 0.31 96 1007.0
20200531084510 48 0 0.0 0.0 0.00 0.31 0.31 96 1007.0
20200531084009 48 0 0.0 0.0 0.00 0.31 0.31 96 1006.9
20200531083508 48 293 0.0 2.0 0.00 0.31 0.31 96 1006.9
20200531083008 48 293 1.0 2.0 0.00 0.31 0.31 96 1006.9
20200531082509 48 293 2.0 3.0 0.00 0.31 0.31 96 1006.9
20200531082007 48 293 2.0 3.0 0.00 0.31 0.31 95 1006.9
20200531081508 48 293 2.0 3.0 0.00 0.31 0.31 95 1006.8
20200531081009 48 293 2.0 2.0 0.00 0.31 0.31 95 1006.9
20200531080508 48 293 1.0 2.0 0.00 0.31 0.31 95 1006.9
20200531080007 48 293 0.0 1.0 0.00 0.31 0.31 95 1006.9
20200531075507 48 293 1.0 2.0 0.00 0.31 0.31 95 1006.9
20200531075007 48 293 1.0 2.0 0.00 0.31 0.31 94 1007.0
20200531074511 48 293 1.0 2.0 0.00 0.31 0.31 94 1007.0
20200531074007 48 293 1.0 2.0 0.00 0.31 0.31 94 1006.9
20200531073507 48 293 0.0 2.0 0.00 0.31 0.31 93 1006.9
20200531073010 49 293 0.0 3.0 0.00 0.31 0.31 93 1006.8
20200531072507 49 293 0.0 3.0 0.00 0.31 0.31 93 1006.9
20200531072007 49 295 1.0 3.0 0.00 0.31 0.31 93 1006.9
20200531071507 49 300 1.0 3.0 0.00 0.31 0.31 94 1006.9
20200531071010 49 305 1.0 3.0 0.00 0.31 0.31 94 1006.9
20200531070507 49 303 1.0 3.0 0.00 0.31 0.31 94 1006.8
20200531070008 49 302 1.0 3.0 0.00 0.31 0.31 93 1006.8
20200531065507 49 301 1.0 3.0 0.00 0.31 0.31 93 1006.8
20200531065008 49 301 1.0 3.0 0.00 0.31 0.31 92 1006.9
20200531064507 49 302 0.0 2.0 0.00 0.31 0.31 92 1006.8
20200531064007 49 306 0.0 2.0 0.00 0.31 0.31 92 1006.7
20200531063508 50 323 1.0 4.0 0.00 0.31 0.31 92 1006.7